Showing default

HULIANWANG DIGUI-19, 62979

Orbit data source: Space-Track

HULIANWANG DIGUI-19, 62979 is a payload satellite owned by Zhongguo Xingwang (CN) in LEO that was launched on Tue, 11 Feb 2025 UTC via a CHANG ZHENG 8A launch vehicle from the Wenchang Satellite Launch Center (WSC). Payload-class satellites include a variety of spacecraft equipped with specific instruments for various scientific and technological missions. These include communications satellites like Starlink; space stations such as the ISS; scientific satellites like the Hubble; Earth observation satellites from companies like Planet Labs, Umbra, and HawkEye 360; GPS; miniature CubeSats for education and research; and military/defense satellites.

Loading next visibility...
Identifier
62979, 2025-030J
Orbit
LEO
Last TLE update
7 hours ago
Origin
Manufacturer
CAST
Mission
Operational Civil Communications
Bus & Motor
HWHD, Unknown motor
Mass
~800 kg wet, ~800 kg dry
Launch date (UTC)
2025-02-11 (5 months ago)
Launch vehicle
CHANG ZHENG 8A
Launch site
Wenchang Satellite Launch Center (WSC)
Object type
Payload
Rocket body
Debris
Shape & HBR
Box + 2 Pan, 10 m
Radar Cross Section
5.935 m², Large (>1 m²)

Expand to show TLE details & history

TLE from 7 hours ago
0 HULIANWANG DIGUI-19
1 62979U 25030J   25182.12302239 -.00000101  00000-0  49240-4 0  9999
2 62979  50.0062  54.8497 0000496 125.4250 234.6669 13.29331371 19169
Epoch: 2025-07-01T02:57Z
TLE epoch observation values (Epoch: 2025-07-01T02:57:09.134Z)
Latitude
0.00002°
Longitude
91.13866°
Altitude
1,150.009 km
Speed
7.279 km/s
True Right ascension
03h 39m 23s
True Declination
0° 00' 00"
Sunlit
Object was in daylight at epoch
Visualization orbit readout
Latitude
14.35149°
Longitude
102.37613°
Altitude
1,149.188 km
Speed
7.281 km/s
Apparent Right ascension
06h 30m 13s
Apparent Declination
-13° 23' 38"
Sunlit
Object is in daylight
Visualization observer readout
Local Sidereal Time
21:54:14
Azimuth
74.12° E
Elevation
-38.178°
Doppler factor
1
Orbital elements
Apogee altitude
1,150.364 km
Perigee altitude
1,149.617 km
Semi-major axis
7,528.128 km
Eccentricity
0.00005
Inclination
50.0062°
RAAN
54.8497°
Arg. of periapsis
125.425°
True anomaly
Unknown
Mean anomaly
234.6669°
Eccentric anomaly
Unknown
Mean motion
3.32287 °/min
Orbital period
108.34 mins
BSTAR
0.00004924
Loading maneuver chart data...
Loading SW <> Apogee altitude chart data...
Loading historical data...
Loading historical data...
Loading historical data...
Loading historical data...
Loading historical data...
Loading historical data...
Loading historical data...

HULIANWANG DIGUI-19 Visibility forecast

Observer location: undefined°, undefined°

Span
Click to sort rows by Start time (UTC) header in descending order
Start Az.
Max El. time (UTC)
Max El. Az.
Max El.
End time (UTC)
End Az.
13 mins2025-07-01 17:30:49.748Z200.751° SSW2025-07-01 17:36:49.748Z140.42° SSE34.41°2025-07-01 17:43:49.748Z65.671° ENE
13 mins2025-07-01 19:24:49.748Z253.661° W2025-07-01 19:30:49.748Z339.587° N42.028°2025-07-01 19:37:49.748Z54.106° ENE
12 mins2025-07-01 21:19:49.748Z292.954° NW2025-07-01 21:25:49.748Z2.582° NNE31.708°2025-07-01 21:31:49.748Z61.187° ENE
12 mins2025-07-01 23:14:49.748Z309.716° NW2025-07-01 23:20:49.748Z28.092° NE36.674°2025-07-01 23:26:49.748Z90.847° ESE
12 mins2025-07-02 01:08:49.748Z299.406° NW2025-07-02 01:14:49.748Z200.959° SSW43.197°2025-07-02 01:20:49.748Z138.576° SSE
7 mins2025-07-02 03:03:49.748Z266.458° W2025-07-02 03:06:49.748Z239.664° WSW16.656°2025-07-02 03:10:49.748Z203.499° SW
|